Regional Weather Roundup
Issued by NWS Lake Charles, LA

Home | Current Version | Previous Version | Text Only | Print | Product List | Glossary On
Versions: 1 2 3 4 5 6 7 8 9 10 11 12 13 14 15 16 17 18 19 20 21 22 23 24 25 26 27
000
ASUS44 KLCH 020810
RWRLCH
REGIONAL WEATHER ROUNDUP
NATIONAL WEATHER SERVICE LAKE CHARLES LA
300 AM CDT MON MAY 02 2016

Note: "fair" indicates few or no clouds below 12,000 feet with no
significant weather and/or obstructions to visibility.


ACROSS SOUTHEAST TEXAS

CITY           SKY/WX    TMP DP  RH WIND       PRES   REMARKS
BEAUMONT       CLOUDY    72  70  93 NE8       29.89F
BEAUMONT CITY  CLOUDY    72  69  91 CALM      29.91F
ORANGE         CLOUDY    72  68  88 CALM      29.92F
JASPER         HVY RAIN  69  67  95 CALM      29.96S
$$

ACROSS CENTRAL LOUISIANA

CITY           SKY/WX    TMP DP  RH WIND       PRES   REMARKS
LEESVILLE      CLOUDY    68  66  94 NE5       29.94R
FULLERTON      FAIR      69  66  90 CALM      29.92F
ALEXANDRIA INT CLOUDY    67  66  97 CALM      29.92F
ESLER FIELD    CLOUDY    67  64  90 CALM      29.94F
DERIDDER       PTSUNNY   69  68  95 N5        29.96S
OAKDALE        CLOUDY    65  64  97 CALM      29.93S
OPELOUSAS      FAIR     N/A N/A N/A NE3       29.93S
$$

ACROSS SOUTHWEST AND SOUTH CENTRAL LOUISIANA

CITY           SKY/WX    TMP DP  RH WIND       PRES   REMARKS
SULPHUR        CLOUDY    72  70  96 N3        29.91F
LAKE CHARLES   MOCLDY    70  68  93 SE6       29.90F
CHENNAULT INT  CLOUDY    68  68  98 E3        29.90F
CAMERON PHI    PTSUNNY   73  70  88 E7        29.93F
DEQUINCY       CLOUDY    69  69 100 CALM      29.92F THUNDER
JENNINGS       PTSUNNY   66  66 100 N3        29.92F
LAFAYETTE      CLEAR     67  65  93 CALM      29.92F
NEW IBERIA     CLEAR     66  65  96 E5        29.92F
ABBEVILLE      FAIR      65  65 100 CALM      29.92F
PATTERSON      NOT AVBL
SALT POINT       N/A     68  67  96 CALM      29.91F
$$

SELECTED SITES ACROSS THE REGION

CITY           SKY/WX    TMP DP  RH WIND       PRES   REMARKS
HOUSTON BUSH   CLOUDY    71  70  96 NE5       29.91R
HOUSTON HOBBY  LGT RAIN  74  71  91 NE6       29.90R
GALVESTON      LGT RAIN  70  68  93 E16G24    29.89F
COLLEGE STAT   CLOUDY    65  59  81 N14       29.96S
CONROE         TSTM      70  69  97 N3        29.94R FOG
HUNTSVILLE     CLOUDY    66  62  87 N7        29.96S
LUFKIN         CLOUDY    70  69  97 N3        29.94R
SHREVEPORT     CLOUDY    69  62  78 NW12      29.95R
MONROE         PTCLDY    70  68  93 S5        29.95R
NATCHEZ MS     CLEAR     64  63  94 S3        29.95F
BATON ROUGE    CLEAR     65  63  93 NE3       29.93F
N.O. INTL ARPT PTCLDY    71  66  84 NE6       29.93F
SLIDELL        CLEAR     64  64 100 CALM      29.93F
$$

MARINE REPORTS

STATION/POSITION TIME  SKY/WX   TEMP    WIND        PRES    VSBY
                                AIR SEA DIR/SP/G
                 (UTC)          (F)     (DEG/KT/KT) (MB)    (MI)
BUOY 30 S HIGH I 0750            75 76  140/ 16/ 21 1010.6R
WVE H/P(F/S)=  7/ 7

SEA RIM ST PARK  0800            74     120/ 11/ 15 1012.8F
PORT ARTHUR      0700               76  120/  5/  7 1013.2F
SABINE PASS N    0700            74 78  100/  9/ 12 1014.0F
TEXAS POINT      NOT AVBL
CALCASIEU PASS   0700            75 76  130/ 12/ 15 1012.3F
LK CHARLES BEACH 0700            70 73              1013.9F
MARSH ISLAND     0700            76     210/ 11/ 13   N/A
FRESH WATER LOCK 0700            72 75   90/  5/  7 1013.9F
AMERADA PASS     0700            71 71   50/  2/  3 1013.4S
$$




USA.gov is the U.S. government's official web portal to all federal, state and local government web resources and services.